Location: Anjeux
(47.8815°N, 6.2076°E)
Time: 06:20:54
(UTC+00:00)

Meteor 1-4 Rocket - Pass Details

Date: 05 March 2021
Orbit: 447 x 500 km, 81.2° (Epoch: 18 April)

Event Time Altitude Azimuth Distance (km) Brightness Sun altitude
Exits shadow 03:58:23 59° 4° (N) 569 2.9 -22.4°
Drops below altitude 10° 04:01:23 10° 10° (N) 1,666 5.6 -21.9°
Sets 04:03:29 0° 11° (NNE) 2,541 6.6 -21.6°
